Location: OHP
(43.9325°N, 5.7154°E)
Time: 22:56:40
(UTC+01:00)

Envisat - Visible Passes

Search period start: 23 April 2019 00:00
Search period end: 03 May 2019 00:00
Orbit: 764 x 766 km, 98.2° (Epoch: 23 April)

Date Brightness Start Highest point End Pass type
(mag) Time Alt. Az. Time Alt. Az. Time Alt. Az.
25 Apr 5.7 20:18:35 10° SW 20:22:15 20° W 20:25:58 10° NW visible
27 Apr 6.1 20:46:35 10° WSW 20:48:07 11° W 20:49:39 10° WNW visible
28 Apr 5.4 20:06:48 10° SSW 20:10:56 25° W 20:15:06 10° NW visible
30 Apr 5.8 20:34:00 10° WSW 20:36:45 15° W 20:39:29 10° NW visible
